Weather History for Port Angeles, WA

Change the Weather History Date:

Tuesday, May 14, 2013

  Actual Average Record
Temperature  
Mean Temperature 50 °F -  
Max Temperature 59 °F 60 °F 81 °F (1973)
Min Temperature 44 °F 44 °F 35 °F (2006)
Degree Days  
Heating Degree Days 14    
Moisture  
Dew Point 43 °F    
Average Humidity 74    
Maximum Humidity 90    
Minimum Humidity 57    
Precipitation  
Precipitation 0.00 in - - ()
Sea Level Pressure  
Sea Level Pressure 30.19 in    
Wind  
Wind Speed 6 mph (West)    
Max Wind Speed 9 mph    
Max Gust Speed -    
Visibility 10 miles    
Events      
Averages and records for this station are not official NWS values.
T = Trace of Precipitation, MM = Missing Value Source: NWS Daily Summary

Daily Weather History Graph

Daily Weather History Graph

Search for Another Location

Airport:

Trip Planner

Search our weather history database for the weather conditions in past years. The results will help you decide how hot, cold, wet, or windy it might be!

Date:

Astronomy

May. 14, 2013 Rise Set
Actual Time 5:35 AM PDT 8:45 PM PDT
Civil Twilight 4:58 AM PDT 9:23 PM PDT
Nautical Twilight 4:10 AM PDT 10:11 PM PDT
Astronomical Twilight 3:10 AM PDT 11:12 PM PDT
Moon 9:21 AM PDT (5/14) No Moon Set
Length of Visible Light 16h 24m
Length of Day
15h 10m
Waxing Crescent, 19% of the Moon is Illuminated
May 14
Waxing Crescent
May 17
First Quarter
May 24
Full
May 31
Last Quarter
Jun 8
New

Hourly Weather History & Observations

Time (PDT) Temp. Windchill Dew Point Humidity Pressure Visibility Wind Dir Wind Speed Gust Speed Precip Events Conditions
12:53 AM 46.0 °F 41.9 °F 39.9 °F 79% 30.19 in 10.0 mi WSW 8.1 mph - N/A   Clear
1:53 AM 46.0 °F 41.4 °F 39.9 °F 79% 30.19 in 10.0 mi WSW 9.2 mph - N/A   Clear
2:53 AM 45.0 °F 42.6 °F 41.0 °F 86% 30.20 in 10.0 mi SE 4.6 mph - N/A   Clear
3:53 AM 45.0 °F - 42.1 °F 90% 30.21 in 10.0 mi Calm Calm - N/A   Mostly Cloudy
4:53 AM 45.0 °F 41.8 °F 42.1 °F 90% 30.22 in 10.0 mi WSW 5.8 mph - N/A   Mostly Cloudy
5:53 AM 44.1 °F 40.8 °F 41.0 °F 89% 30.22 in 10.0 mi SW 5.8 mph - N/A   Partly Cloudy
6:53 AM 46.9 °F - 43.0 °F 86% 30.22 in 10.0 mi WSW 4.6 mph - N/A   Mostly Cloudy
7:53 AM 50.0 °F - 43.0 °F 77% 30.22 in 10.0 mi West 4.6 mph - N/A   Partly Cloudy
8:53 AM 53.1 °F - 44.1 °F 71% 30.22 in 10.0 mi Variable 3.5 mph - N/A   Partly Cloudy
9:53 AM 54.0 °F - 44.1 °F 69% 30.22 in 10.0 mi East 4.6 mph - N/A   Clear
10:53 AM 54.0 °F - 44.1 °F 69% 30.22 in 10.0 mi Variable 5.8 mph - N/A   Clear
11:53 AM 55.9 °F - 45.0 °F 67% 30.22 in 10.0 mi Variable 4.6 mph - N/A   Clear
12:53 PM 55.0 °F - 42.1 °F 62% 30.21 in 10.0 mi Variable 4.6 mph - N/A   Clear
1:53 PM 55.0 °F - 41.0 °F 59% 30.21 in 10.0 mi Variable 3.5 mph - N/A   Mostly Cloudy
2:53 PM 55.9 °F - 41.0 °F 57% 30.19 in 10.0 mi NNW 6.9 mph - N/A   Partly Cloudy
3:53 PM 57.0 °F - 43.0 °F 59% 30.18 in 10.0 mi Variable 3.5 mph - N/A   Clear
4:53 PM 55.0 °F - 41.0 °F 59% 30.17 in 10.0 mi NNW 4.6 mph - N/A   Mostly Cloudy
5:53 PM 54.0 °F - 42.1 °F 64% 30.17 in 10.0 mi NW 8.1 mph - N/A   Mostly Cloudy
6:53 PM 53.1 °F - 43.0 °F 69% 30.16 in 10.0 mi NW 6.9 mph - N/A   Scattered Clouds
7:53 PM 52.0 °F - 44.1 °F 74% 30.16 in 10.0 mi West 6.9 mph - N/A   Mostly Cloudy
8:53 PM 50.0 °F - 44.1 °F 80% 30.16 in 10.0 mi West 4.6 mph - N/A   Mostly Cloudy
9:53 PM 50.0 °F - 43.0 °F 77% 30.16 in 10.0 mi West 5.8 mph - N/A   Mostly Cloudy
10:53 PM 50.0 °F - 44.1 °F 80% 30.15 in 10.0 mi WSW 4.6 mph - N/A   Overcast
11:53 PM 48.9 °F - 45.0 °F 86% 30.14 in 10.0 mi WSW 3.5 mph - N/A   Overcast